Weather History for Luxeuil, France

Change the Weather History Date:

Wednesday, October 24, 2012

  Actual Average Record
Temperature  
Mean Temperature 48 °F -  
Max Temperature 55 °F 48 °F 68 °F (2013)
Min Temperature 42 °F 37 °F 30 °F (2007)
Degree Days  
Heating Degree Days 16    
Moisture  
Dew Point 44 °F    
Average Humidity 82    
Maximum Humidity 93    
Minimum Humidity 71    
Precipitation  
Precipitation 0.00 in - - ()
Sea Level Pressure  
Sea Level Pressure 30.08 in    
Wind  
Wind Speed 6 mph ()    
Max Wind Speed 10 mph    
Max Gust Speed -    
Visibility 5.3 miles    
Events Fog    
Averages and records for this station are not official NWS values.
T = Trace of Precipitation, MM = Missing Value Source: Averaged Metar Reports

Daily Weather History Graph

Daily Weather History Graph

Search for Another Location

Airport:

Trip Planner

Search our weather history database for the weather conditions in past years. The results will help you decide how hot, cold, wet, or windy it might be!

Date:

Astronomy

Oct. 24, 2012 Rise Set
Actual Time 8:07 AM CEST 6:29 PM CEST
Civil Twilight 7:35 AM CEST 7:01 PM CEST
Nautical Twilight 6:59 AM CEST 7:37 PM CEST
Astronomical Twilight 6:23 AM CEST 8:12 PM CEST
Moon 3:56 PM CEST (10/24) 2:23 AM CEST (10/24)
Length of Visible Light 11h 25m
Length of Day
10h 22m
Waxing Gibbous, 73% of the Moon is Illuminated
Oct 24
Waxing Gibbous
Oct 29
Full
Nov 7
Last Quarter
Nov 13
New
Nov 20
First Quarter

Hourly Weather History & Observations

Time (CEST) Temp. Windchill Dew Point Humidity Pressure Visibility Wind Dir Wind Speed Gust Speed Precip Events Conditions
12:00 AM 48.2 °F - 44.6 °F 87% 30.15 in 6.2 mi SE 6.9 mph - N/A   Overcast
12:30 AM 48.2 °F - 44.6 °F 87% 30.15 in 6.2 mi SE 5.8 mph - N/A   Overcast
1:00 AM 48.2 °F - 44.6 °F 87% 30.15 in 6.2 mi East 3.5 mph - N/A   Overcast
1:30 AM 48.2 °F - 44.6 °F 87% 30.15 in 6.2 mi ESE 5.8 mph - N/A   Overcast
2:00 AM 48.2 °F - 44.6 °F 87% 30.12 in 6.2 mi East 6.9 mph - N/A   Overcast
2:30 AM 48.2 °F - 44.6 °F 87% 30.12 in 5.6 mi ESE 6.9 mph - N/A   Overcast
3:00 AM 48.2 °F - 44.6 °F 87% 30.12 in 5.6 mi SE 10.4 mph - N/A   Overcast
3:30 AM 48.2 °F - 44.6 °F 87% 30.12 in 5.6 mi ESE 8.1 mph - N/A   Overcast
4:00 AM 48.2 °F - 44.6 °F 87% 30.12 in 5.0 mi SE 9.2 mph - N/A   Overcast
4:30 AM 48.2 °F - 44.6 °F 87% 30.12 in 5.0 mi SE 6.9 mph - N/A   Overcast
5:00 AM 48.2 °F - 42.8 °F 82% 30.12 in 5.0 mi SE 9.2 mph - N/A   Overcast
5:30 AM 48.2 °F - 42.8 °F 82% 30.12 in 5.0 mi ESE 8.1 mph - N/A   Overcast
6:00 AM 48.2 °F - 42.8 °F 82% 30.12 in 5.6 mi ESE 9.2 mph - N/A   Overcast
6:30 AM 48.2 °F - 42.8 °F 82% 30.09 in 6.2 mi East 6.9 mph - N/A   Overcast
7:00 AM 48.2 °F - 42.8 °F 82% 30.09 in 6.2 mi East 6.9 mph - N/A   Overcast
7:30 AM 48.2 °F - 42.8 °F 82% 30.09 in 6.2 mi SE 10.4 mph - N/A   Overcast
8:00 AM 48.2 °F - 42.8 °F 82% 30.09 in 6.2 mi ESE 9.2 mph - N/A   Overcast
8:30 AM 48.2 °F - 42.8 °F 82% 30.09 in 6.2 mi SE 10.4 mph - N/A   Overcast
9:00 AM 48.2 °F - 42.8 °F 82% 30.09 in 6.2 mi ENE 4.6 mph - N/A   Overcast
9:30 AM 48.2 °F - 42.8 °F 82% 30.09 in 6.2 mi ENE 4.6 mph - N/A   Overcast
11:30 AM 50.0 °F - 42.8 °F 76% 30.09 in 6.2 mi ENE 5.8 mph - N/A   Unknown
12:00 PM 51.8 °F - 42.8 °F 71% 30.09 in 6.2 mi ESE 4.6 mph - N/A   Overcast
12:30 PM 53.6 °F - 44.6 °F 72% 30.09 in 6.2 mi ESE 6.9 mph - N/A   Overcast
1:00 PM 53.6 °F - 44.6 °F 72% 30.09 in 6.2 mi SE 8.1 mph - N/A   Overcast
1:30 PM 53.6 °F - 46.4 °F 77% 30.06 in 6.2 mi SSE 8.1 mph - N/A   Overcast
2:00 PM 55.4 °F - 46.4 °F 72% 30.06 in 6.2 mi SE 6.9 mph - N/A   Overcast
2:30 PM 55.4 °F - 46.4 °F 72% 30.06 in 6.2 mi South 6.9 mph - N/A   Mostly Cloudy
3:00 PM 53.6 °F - 46.4 °F 77% 30.06 in 6.2 mi SSE 6.9 mph - N/A   Overcast
3:30 PM 53.6 °F - 46.4 °F 77% 30.04 in 6.2 mi SSE 8.1 mph - N/A   Mostly Cloudy
4:00 PM 55.4 °F - 46.4 °F 72% 30.04 in 6.2 mi SSE 8.1 mph - N/A   Partly Cloudy
4:30 PM 55.4 °F - 46.4 °F 72% 30.04 in 6.2 mi SSE 5.8 mph - N/A   Mostly Cloudy
5:00 PM 53.6 °F - 46.4 °F 77% 30.04 in 6.2 mi SSE 6.9 mph - N/A   Scattered Clouds
5:30 PM 53.6 °F - 46.4 °F 77% 30.04 in 6.2 mi SSE 5.8 mph - N/A   Unknown
6:00 PM 51.8 °F - 44.6 °F 76% 30.04 in 6.2 mi SSE 6.9 mph - N/A   Unknown
6:30 PM 50.0 °F - 44.6 °F 82% 30.04 in 6.2 mi SSE 3.5 mph - N/A   Unknown
7:00 PM 48.2 °F - 42.8 °F 82% 30.04 in 6.2 mi SE 3.5 mph - N/A   Unknown
7:30 PM 48.2 °F - 42.8 °F 82% 30.04 in 6.2 mi Calm Calm - N/A   Unknown
8:00 PM 48.2 °F - 44.6 °F 87% 30.04 in 4.3 mi East 2.3 mph - N/A   Unknown
8:30 PM 46.4 °F - 42.8 °F 87% 30.04 in 2.8 mi Variable 2.3 mph - N/A   Mist
9:00 PM 44.6 °F - 41.0 °F 87% 30.04 in 0.2 mi Calm Calm - N/A   Unknown
9:30 PM 44.6 °F - 42.8 °F 93% 30.04 in 2.2 mi ENE 2.3 mph - N/A   Mist
10:00 PM 44.6 °F 43.1 °F 42.8 °F 93% 30.04 in 3.1 mi ENE 3.5 mph - N/A   Mist
10:30 PM 44.6 °F 43.1 °F 42.8 °F 93% 30.04 in 2.5 mi NE 3.5 mph - N/A   Mist
11:00 PM 42.8 °F - 39.2 °F 87% 30.01 in 0.6 mi NE 1.2 mph - N/A   Mist
11:30 PM 42.8 °F - 41.0 °F 93% 30.04 in 0.2 mi Calm Calm - N/A Fog Fog